Tracking 28052 objects as of 22-Sep-2023
HD Live streaming from Space Station
objects crossing your sky now

EKRAN 6

Track EKRAN 6 now!
EKRAN 6 is classified as:


NORAD ID: 12120
Int'l Code: 1980-104A
Perigee: 35,793.2 km
Apogee: 35,823.3 km
Inclination: 8.6 °
Period: 1,436.8 minutes
Semi major axis: 42179 km
RCS: 6.3095 m2 (large)
Launch date: December 26, 1980
Source: Commonwealth of Independent States (former USSR) (CIS)
Launch site: TYURATAM MISSILE AND SPACE COMPLEX (TTMTR)
Your satellite tracking list
Your tracking list is empty




NASA's NSSDC Master Catalog

Two Line Element Set (TLE):
1 12120U 80104A   23264.84533528 -.00000051  00000-0  00000-0 0  9991
2 12120   8.6372 300.3887 0003563  81.2030 355.4640  1.00220045117396
Source of the keplerian elements: AFSPC